2023-10-07T00:01:00,pkn,2.40
2023-10-07T00:02:00,pkn,1.20
2023-10-07T00:04:00,pkn,3.60
2023-10-07T00:06:00,pkn,10.80
2023-10-07T00:07:00,pkn,3.60
2023-10-07T00:08:00,pkn,2.40
2023-10-07T00:09:00,pkn,9.60
2023-10-07T00:11:00,pkn,10.80
2023-10-07T00:13:00,pkn,4.80
2023-10-07T00:15:00,pkn,2.40
2023-10-07T00:17:00,pkn,2.40
2023-10-07T00:18:00,pkn,1.20
2023-10-07T00:20:00,pkn,1.20
2023-10-07T00:22:00,pkn,2.40
2023-10-07T00:23:00,pkn,1.20
2023-10-07T00:25:00,pkn,2.40
2023-10-07T00:26:00,pkn,1.20
2023-10-07T00:28:00,pkn,2.40
2023-10-07T00:31:00,pkn,2.40
2023-10-07T00:33:00,pkn,2.40
2023-10-07T00:35:00,pkn,2.40
2023-10-07T00:37:00,pkn,2.40
2023-10-07T00:39:00,pkn,2.40
2023-10-07T00:41:00,pkn,2.40
2023-10-07T00:43:00,pkn,2.40
2023-10-07T00:44:00,pkn,1.20
2023-10-07T00:47:00,pkn,2.40
2023-10-07T00:49:00,pkn,2.40
2023-10-07T00:50:00,pkn,1.20
2023-10-07T00:52:00,pkn,2.40
2023-10-07T00:54:00,pkn,1.20
2023-10-07T00:56:00,pkn,2.40
2023-10-07T00:58:00,pkn,2.40
2023-10-07T00:59:00,pkn,1.20
2023-10-07T01:01:00,pkn,1.20
2023-10-07T01:03:00,pkn,7.20
2023-10-07T01:04:00,pkn,4.80
2023-10-07T01:06:00,pkn,10.80
2023-10-07T01:08:00,pkn,9.60
2023-10-07T01:10:00,pkn,7.20
2023-10-07T01:11:00,pkn,1.20
2023-10-07T01:13:00,pkn,2.40
2023-10-07T01:14:00,pkn,1.20
2023-10-07T01:16:00,pkn,2.40
2023-10-07T01:19:00,pkn,2.40
2023-10-07T01:21:00,pkn,2.40
2023-10-07T01:23:00,pkn,1.20
2023-10-07T01:24:00,pkn,1.20
2023-10-07T01:26:00,pkn,2.40
2023-10-07T01:27:00,pkn,1.20
2023-10-07T01:29:00,pkn,2.40
2023-10-07T01:32:00,pkn,2.40
2023-10-07T01:34:00,pkn,2.40
2023-10-07T01:36:00,pkn,2.40
2023-10-07T01:38:00,pkn,2.40
2023-10-07T01:40:00,pkn,2.40
2023-10-07T01:42:00,pkn,1.20
2023-10-07T01:44:00,pkn,2.40
2023-10-07T01:45:00,pkn,1.20
2023-10-07T01:46:00,pkn,1.20
2023-10-07T01:48:00,pkn,2.40
2023-10-07T01:50:00,pkn,2.40
2023-10-07T01:51:00,pkn,1.20
2023-10-07T01:52:00,pkn,1.20
2023-10-07T01:54:00,pkn,2.40
2023-10-07T01:56:00,pkn,1.20
2023-10-07T01:58:00,pkn,2.40
2023-10-07T01:59:00,pkn,1.20
2023-10-07T02:01:00,pkn,2.40
2023-10-07T02:03:00,pkn,1.20
2023-10-07T02:05:00,pkn,2.40
2023-10-07T02:07:00,pkn,2.40
2023-10-07T02:10:00,pkn,2.40
2023-10-07T02:12:00,pkn,2.40
2023-10-07T02:14:00,pkn,1.20
2023-10-07T02:15:00,pkn,1.20
2023-10-07T02:17:00,pkn,10.80
2023-10-07T02:18:00,pkn,3.60
2023-10-07T02:20:00,pkn,10.80
2023-10-07T02:22:00,pkn,9.60
2023-10-07T02:24:00,pkn,4.80
2023-10-07T02:25:00,pkn,1.20
2023-10-07T02:27:00,pkn,2.40
2023-10-07T02:29:00,pkn,2.40
2023-10-07T02:30:00,pkn,1.20
2023-10-07T02:31:00,pkn,1.20
2023-10-07T02:32:00,pkn,1.20
2023-10-07T02:34:00,pkn,1.20
2023-10-07T02:36:00,pkn,2.40
2023-10-07T02:38:00,pkn,2.40
2023-10-07T02:40:00,pkn,1.20
2023-10-07T02:42:00,pkn,2.40
2023-10-07T02:43:00,pkn,1.20
2023-10-07T02:45:00,pkn,1.20
2023-10-07T02:47:00,pkn,2.40
2023-10-07T02:49:00,pkn,2.40
2023-10-07T02:50:00,pkn,1.20
2023-10-07T02:52:00,pkn,1.20
2023-10-07T02:54:00,pkn,2.40
2023-10-07T02:56:00,pkn,2.40
2023-10-07T02:57:00,pkn,1.20
2023-10-07T02:58:00,pkn,8.40
2023-10-07T02:59:00,pkn,7.20
2023-10-07T03:01:00,pkn,7.20
2023-10-07T03:02:00,pkn,2.40
2023-10-07T03:03:00,pkn,9.60
2023-10-07T03:04:00,pkn,2.40
2023-10-07T03:06:00,pkn,2.40
2023-10-07T03:08:00,pkn,2.40
2023-10-07T03:10:00,pkn,2.40
2023-10-07T03:12:00,pkn,2.40
2023-10-07T03:15:00,pkn,2.40
2023-10-07T03:17:00,pkn,2.40
2023-10-07T03:19:00,pkn,2.40
2023-10-07T03:22:00,pkn,2.40
2023-10-07T03:24:00,pkn,2.40
2023-10-07T03:26:00,pkn,2.40
2023-10-07T03:28:00,pkn,2.40
2023-10-07T03:30:00,pkn,2.40
2023-10-07T03:32:00,pkn,1.20
2023-10-07T03:33:00,pkn,1.20
2023-10-07T03:34:00,pkn,1.20
2023-10-07T03:36:00,pkn,1.20
2023-10-07T03:37:00,pkn,1.20
2023-10-07T03:39:00,pkn,2.40
2023-10-07T03:41:00,pkn,1.20
2023-10-07T03:43:00,pkn,2.40
2023-10-07T03:45:00,pkn,2.40
2023-10-07T03:46:00,pkn,1.20
2023-10-07T03:47:00,pkn,1.20
2023-10-07T03:49:00,pkn,1.20
2023-10-07T03:51:00,pkn,2.40
2023-10-07T03:53:00,pkn,1.20
2023-10-07T03:54:00,pkn,1.20
2023-10-07T03:55:00,pkn,1.20
2023-10-07T03:57:00,pkn,2.40
2023-10-07T03:58:00,pkn,1.20
2023-10-07T04:00:00,pkn,1.20
2023-10-07T04:02:00,pkn,2.40
2023-10-07T04:04:00,pkn,2.40
2023-10-07T04:07:00,pkn,2.40
2023-10-07T04:09:00,pkn,7.20
2023-10-07T04:10:00,pkn,3.60
2023-10-07T04:12:00,pkn,10.80
2023-10-07T04:13:00,pkn,4.80
2023-10-07T04:14:00,pkn,6.00
2023-10-07T04:16:00,pkn,6.00
2023-10-07T04:17:00,pkn,1.20
2023-10-07T04:19:00,pkn,2.40
2023-10-07T04:21:00,pkn,1.20
2023-10-07T04:22:00,pkn,1.20
2023-10-07T04:24:00,pkn,2.40
2023-10-07T04:26:00,pkn,2.40
2023-10-07T04:27:00,pkn,1.20
2023-10-07T04:29:00,pkn,1.20
2023-10-07T04:31:00,pkn,2.40
2023-10-07T04:33:00,pkn,2.40
2023-10-07T04:34:00,pkn,1.20
2023-10-07T04:35:00,pkn,1.20
2023-10-07T04:36:00,pkn,1.20
2023-10-07T04:38:00,pkn,1.20
2023-10-07T04:39:00,pkn,1.20
2023-10-07T04:41:00,pkn,2.40
2023-10-07T04:42:00,pkn,1.20
2023-10-07T04:43:00,pkn,1.20
2023-10-07T04:45:00,pkn,1.20
2023-10-07T04:47:00,pkn,2.40
2023-10-07T04:49:00,pkn,2.40
2023-10-07T04:50:00,pkn,1.20
2023-10-07T04:52:00,pkn,2.40
2023-10-07T04:53:00,pkn,1.20
2023-10-07T04:54:00,pkn,1.20
2023-10-07T04:56:00,pkn,2.40
2023-10-07T04:57:00,pkn,1.20
2023-10-07T04:59:00,pkn,1.20
2023-10-07T05:00:00,pkn,1.20
2023-10-07T05:02:00,pkn,2.40
2023-10-07T05:04:00,pkn,2.40
2023-10-07T05:07:00,pkn,2.40
2023-10-07T05:08:00,pkn,1.20
2023-10-07T05:10:00,pkn,1.20
2023-10-07T05:12:00,pkn,2.40
2023-10-07T05:14:00,pkn,2.40
2023-10-07T05:16:00,pkn,1.20
2023-10-07T05:17:00,pkn,1.20
2023-10-07T05:18:00,pkn,1.20
2023-10-07T05:20:00,pkn,1.20
2023-10-07T05:22:00,pkn,2.40
2023-10-07T05:24:00,pkn,2.40
2023-10-07T05:25:00,pkn,1.20
2023-10-07T05:27:00,pkn,1.20
2023-10-07T05:28:00,pkn,1.20
2023-10-07T05:30:00,pkn,2.40
2023-10-07T05:32:00,pkn,2.40
2023-10-07T05:34:00,pkn,1.20
2023-10-07T05:36:00,pkn,2.40
2023-10-07T05:37:00,pkn,1.20
2023-10-07T05:39:00,pkn,1.20
2023-10-07T05:40:00,pkn,1.20
2023-10-07T05:42:00,pkn,2.40
2023-10-07T05:43:00,pkn,1.20
2023-10-07T05:46:00,pkn,2.40
2023-10-07T05:47:00,pkn,1.20
2023-10-07T05:49:00,pkn,2.40
2023-10-07T05:51:00,pkn,1.20
2023-10-07T05:53:00,pkn,2.40
2023-10-07T05:55:00,pkn,1.20
2023-10-07T05:56:00,pkn,1.20
2023-10-07T05:58:00,pkn,2.40
2023-10-07T06:01:00,pkn,2.40
2023-10-07T06:03:00,pkn,1.20
2023-10-07T06:05:00,pkn,7.20
2023-10-07T06:06:00,pkn,1.20
2023-10-07T06:07:00,pkn,8.40
2023-10-07T06:08:00,pkn,2.40
2023-10-07T06:09:00,pkn,8.40
2023-10-07T06:10:00,pkn,6.00
2023-10-07T06:12:00,pkn,8.40
2023-10-07T06:13:00,pkn,1.20
2023-10-07T06:14:00,pkn,1.20
2023-10-07T06:16:00,pkn,2.40
2023-10-07T06:18:00,pkn,2.40
2023-10-07T06:20:00,pkn,1.20
2023-10-07T06:22:00,pkn,3.60
2023-10-07T06:23:00,pkn,1.20
2023-10-07T06:25:00,pkn,2.40
2023-10-07T06:27:00,pkn,1.20
2023-10-07T06:29:00,pkn,2.40
2023-10-07T06:31:00,pkn,1.20
2023-10-07T06:33:00,pkn,2.40
2023-10-07T06:36:00,pkn,2.40
2023-10-07T06:38:00,pkn,1.20
2023-10-07T06:40:00,pkn,2.40
2023-10-07T06:42:00,pkn,1.20
2023-10-07T06:44:00,pkn,2.40
2023-10-07T06:45:00,pkn,1.20
2023-10-07T06:47:00,pkn,1.20
2023-10-07T06:49:00,pkn,2.40
2023-10-07T06:50:00,pkn,1.20
2023-10-07T06:52:00,pkn,1.20
2023-10-07T06:54:00,pkn,2.40
2023-10-07T06:56:00,pkn,1.20
2023-10-07T06:57:00,pkn,1.20
2023-10-07T06:58:00,pkn,1.20
2023-10-07T07:00:00,pkn,2.40
2023-10-07T07:02:00,pkn,2.40
2023-10-07T07:04:00,pkn,2.40
2023-10-07T07:06:00,pkn,1.20
2023-10-07T07:08:00,pkn,2.40
2023-10-07T07:09:00,pkn,1.20
2023-10-07T07:11:00,pkn,1.20
2023-10-07T07:12:00,pkn,1.20
2023-10-07T07:14:00,pkn,2.40
2023-10-07T07:17:00,pkn,2.40
2023-10-07T07:19:00,pkn,2.40
2023-10-07T07:22:00,pkn,2.40
2023-10-07T07:24:00,pkn,1.20
2023-10-07T07:25:00,pkn,1.20
2023-10-07T07:27:00,pkn,2.40
2023-10-07T07:30:00,pkn,2.40
2023-10-07T07:32:00,pkn,1.20
2023-10-07T07:34:00,pkn,2.40
2023-10-07T07:36:00,pkn,2.40
2023-10-07T07:37:00,pkn,1.20
2023-10-07T07:39:00,pkn,2.40
2023-10-07T07:41:00,pkn,1.20
2023-10-07T07:42:00,pkn,1.20
2023-10-07T07:44:00,pkn,2.40
2023-10-07T07:46:00,pkn,1.20
2023-10-07T07:48:00,pkn,2.40
2023-10-07T07:49:00,pkn,1.20
2023-10-07T07:51:00,pkn,2.40
2023-10-07T07:52:00,pkn,1.20
2023-10-07T07:54:00,pkn,1.20
2023-10-07T07:55:00,pkn,1.20
2023-10-07T07:57:00,pkn,2.40
2023-10-07T07:59:00,pkn,1.20
2023-10-07T08:01:00,pkn,2.40
2023-10-07T08:02:00,pkn,1.20
2023-10-07T08:04:00,pkn,2.40
2023-10-07T08:07:00,pkn,2.40
2023-10-07T08:08:00,pkn,1.20
2023-10-07T08:10:00,pkn,1.20
2023-10-07T08:12:00,pkn,3.60
2023-10-07T08:14:00,pkn,10.80
2023-10-07T08:15:00,pkn,3.60
2023-10-07T08:17:00,pkn,10.80
2023-10-07T08:19:00,pkn,9.60
2023-10-07T08:20:00,pkn,4.80
2023-10-07T08:22:00,pkn,10.80
2023-10-07T08:24:00,pkn,8.40
2023-10-07T08:25:00,pkn,3.60
2023-10-07T08:27:00,pkn,1.20
2023-10-07T08:28:00,pkn,1.20
2023-10-07T08:30:00,pkn,2.40
2023-10-07T08:32:00,pkn,1.20
2023-10-07T08:33:00,pkn,1.20
2023-10-07T08:35:00,pkn,1.20
2023-10-07T08:37:00,pkn,2.40
2023-10-07T08:39:00,pkn,1.20
2023-10-07T08:40:00,pkn,1.20
2023-10-07T08:42:00,pkn,1.20
2023-10-07T08:44:00,pkn,2.40
2023-10-07T08:46:00,pkn,1.20
2023-10-07T08:48:00,pkn,7.20
2023-10-07T08:50:00,pkn,8.40
2023-10-07T08:52:00,pkn,10.80
2023-10-07T08:54:00,pkn,9.60
2023-10-07T08:55:00,pkn,3.60
2023-10-07T08:56:00,pkn,1.20
2023-10-07T08:57:00,pkn,8.40
2023-10-07T08:59:00,pkn,2.40
2023-10-07T09:01:00,pkn,1.20
2023-10-07T09:03:00,pkn,2.40
2023-10-07T09:05:00,pkn,1.20
2023-10-07T09:07:00,pkn,2.40
2023-10-07T09:09:00,pkn,1.20
2023-10-07T09:11:00,pkn,2.40
2023-10-07T09:13:00,pkn,1.20
2023-10-07T09:14:00,pkn,1.20
2023-10-07T09:17:00,pkn,2.40
2023-10-07T09:19:00,pkn,2.40
2023-10-07T09:21:00,pkn,4.80
2023-10-07T09:23:00,pkn,10.80
2023-10-07T09:25:00,pkn,10.80
2023-10-07T09:26:00,pkn,4.80
2023-10-07T09:28:00,pkn,9.60
2023-10-07T09:29:00,pkn,4.80
2023-10-07T09:31:00,pkn,9.60
2023-10-07T09:33:00,pkn,8.40
2023-10-07T09:35:00,pkn,10.80
2023-10-07T09:37:00,pkn,8.40
2023-10-07T09:39:00,pkn,10.80
2023-10-07T09:40:00,pkn,1.20
2023-10-07T09:42:00,pkn,2.40
2023-10-07T09:43:00,pkn,1.20
2023-10-07T09:45:00,pkn,1.20
2023-10-07T09:47:00,pkn,2.40
2023-10-07T09:49:00,pkn,1.20
2023-10-07T09:51:00,pkn,2.40
2023-10-07T09:53:00,pkn,1.20
2023-10-07T09:54:00,pkn,1.20
2023-10-07T09:55:00,pkn,1.20
2023-10-07T09:57:00,pkn,1.20
2023-10-07T09:59:00,pkn,2.40
2023-10-07T10:01:00,pkn,6.00
2023-10-07T10:02:00,pkn,6.00
2023-10-07T10:04:00,pkn,9.60
2023-10-07T10:06:00,pkn,9.60
2023-10-07T10:08:00,pkn,10.80
2023-10-07T10:10:00,pkn,6.00
2023-10-07T10:12:00,pkn,2.40
2023-10-07T10:14:00,pkn,1.20
2023-10-07T10:15:00,pkn,1.20
2023-10-07T10:17:00,pkn,2.40
2023-10-07T10:19:00,pkn,1.20
2023-10-07T10:21:00,pkn,3.60
2023-10-07T10:23:00,pkn,3.60
2023-10-07T10:24:00,pkn,2.40
2023-10-07T10:25:00,pkn,2.40
2023-10-07T10:27:00,pkn,6.00
2023-10-07T10:29:00,pkn,4.80
2023-10-07T10:31:00,pkn,6.00
2023-10-07T10:33:00,pkn,12.00
2023-10-07T10:35:00,pkn,9.60
2023-10-07T10:36:00,pkn,7.20
2023-10-07T10:38:00,pkn,10.80
2023-10-07T10:39:00,pkn,6.00
2023-10-07T10:40:00,pkn,6.00
2023-10-07T10:42:00,pkn,10.80
2023-10-07T10:43:00,pkn,4.80
2023-10-07T10:45:00,pkn,10.80
2023-10-07T10:46:00,pkn,4.80
2023-10-07T10:47:00,pkn,3.60
2023-10-07T10:49:00,pkn,3.60
2023-10-07T10:50:00,pkn,1.20
2023-10-07T10:52:00,pkn,2.40
2023-10-07T10:54:00,pkn,2.40
2023-10-07T10:55:00,pkn,1.20
2023-10-07T10:57:00,pkn,3.60
2023-10-07T10:59:00,pkn,2.40
2023-10-07T11:01:00,pkn,2.40
2023-10-07T11:03:00,pkn,4.80
2023-10-07T11:04:00,pkn,4.80
2023-10-07T11:06:00,pkn,9.60
2023-10-07T11:08:00,pkn,10.80
2023-10-07T11:10:00,pkn,9.60
2023-10-07T11:11:00,pkn,6.00
2023-10-07T11:13:00,pkn,9.60
2023-10-07T11:15:00,pkn,10.80
2023-10-07T11:17:00,pkn,8.40
2023-10-07T11:18:00,pkn,1.20
2023-10-07T11:19:00,pkn,1.20
2023-10-07T11:21:00,pkn,1.20
2023-10-07T11:22:00,pkn,1.20
2023-10-07T11:24:00,pkn,2.40
2023-10-07T11:26:00,pkn,1.20
2023-10-07T11:27:00,pkn,1.20
2023-10-07T11:29:00,pkn,2.40
2023-10-07T11:31:00,pkn,1.20
2023-10-07T11:32:00,pkn,1.20
2023-10-07T11:34:00,pkn,1.20
2023-10-07T11:36:00,pkn,2.40
2023-10-07T11:38:00,pkn,1.20
2023-10-07T11:40:00,pkn,1.20
2023-10-07T11:41:00,pkn,1.20
2023-10-07T11:43:00,pkn,2.40
2023-10-07T11:45:00,pkn,3.60
2023-10-07T11:47:00,pkn,10.80
2023-10-07T11:49:00,pkn,9.60
2023-10-07T11:50:00,pkn,4.80
2023-10-07T11:52:00,pkn,9.60
2023-10-07T11:53:00,pkn,4.80
2023-10-07T11:55:00,pkn,9.60
2023-10-07T11:56:00,pkn,3.60
2023-10-07T11:59:00,pkn,1.20
2023-10-07T12:01:00,pkn,2.40
2023-10-07T12:04:00,pkn,2.40
2023-10-07T12:06:00,pkn,1.20
2023-10-07T12:07:00,pkn,1.20
2023-10-07T12:09:00,pkn,2.40
2023-10-07T12:11:00,pkn,1.20
2023-10-07T12:13:00,pkn,2.40
2023-10-07T12:16:00,pkn,1.20
2023-10-07T12:18:00,pkn,2.40
2023-10-07T12:20:00,pkn,1.20
2023-10-07T12:22:00,pkn,1.20
2023-10-07T12:24:00,pkn,2.40
2023-10-07T12:27:00,pkn,2.40
2023-10-07T12:29:00,pkn,1.20
2023-10-07T12:30:00,pkn,4.80
2023-10-07T12:31:00,pkn,4.80
2023-10-07T12:33:00,pkn,10.80
2023-10-07T12:34:00,pkn,4.80
2023-10-07T12:36:00,pkn,9.60
2023-10-07T12:37:00,pkn,1.20
2023-10-07T12:38:00,pkn,4.80
2023-10-07T12:39:00,pkn,1.20
2023-10-07T12:41:00,pkn,1.20
2023-10-07T12:42:00,pkn,1.20
2023-10-07T12:44:00,pkn,2.40
2023-10-07T12:45:00,pkn,1.20
2023-10-07T12:47:00,pkn,1.20
2023-10-07T12:49:00,pkn,2.40
2023-10-07T12:52:00,pkn,2.40
2023-10-07T12:54:00,pkn,1.20
2023-10-07T12:55:00,pkn,1.20
2023-10-07T12:57:00,pkn,1.20
2023-10-07T12:59:00,pkn,2.40
2023-10-07T13:01:00,pkn,1.20
2023-10-07T13:02:00,pkn,1.20
2023-10-07T13:04:00,pkn,1.20
2023-10-07T13:06:00,pkn,2.40
2023-10-07T13:09:00,pkn,2.40
2023-10-07T13:11:00,pkn,2.40
2023-10-07T13:14:00,pkn,2.40
2023-10-07T13:15:00,pkn,1.20
2023-10-07T13:17:00,pkn,8.40
2023-10-07T13:19:00,pkn,10.80
2023-10-07T13:21:00,pkn,8.40
2023-10-07T13:23:00,pkn,10.80
2023-10-07T13:24:00,pkn,4.80
2023-10-07T13:26:00,pkn,9.60
2023-10-07T13:28:00,pkn,10.80
2023-10-07T13:29:00,pkn,3.60
2023-10-07T13:30:00,pkn,4.80
2023-10-07T13:31:00,pkn,1.20
2023-10-07T13:32:00,pkn,1.20
2023-10-07T13:33:00,pkn,1.20
2023-10-07T13:34:00,pkn,1.20
2023-10-07T13:36:00,pkn,2.40
2023-10-07T13:38:00,pkn,1.20
2023-10-07T13:40:00,pkn,1.20
2023-10-07T13:41:00,pkn,1.20
2023-10-07T13:43:00,pkn,1.20
2023-10-07T13:45:00,pkn,2.40
2023-10-07T13:46:00,pkn,1.20
2023-10-07T13:48:00,pkn,8.40
2023-10-07T13:50:00,pkn,10.80
2023-10-07T13:52:00,pkn,7.20
2023-10-07T13:53:00,pkn,7.20
2023-10-07T13:55:00,pkn,8.40
2023-10-07T13:56:00,pkn,4.80
2023-10-07T13:58:00,pkn,3.60
2023-10-07T14:00:00,pkn,1.20
2023-10-07T14:02:00,pkn,1.20
2023-10-07T14:04:00,pkn,4.80
2023-10-07T14:05:00,pkn,2.40
2023-10-07T14:06:00,pkn,1.20
2023-10-07T14:08:00,pkn,2.40
2023-10-07T14:11:00,pkn,2.40
2023-10-07T14:13:00,pkn,1.20
2023-10-07T14:14:00,pkn,1.20
2023-10-07T14:15:00,pkn,1.20
2023-10-07T14:17:00,pkn,1.20
2023-10-07T14:19:00,pkn,1.20
2023-10-07T14:20:00,pkn,3.60
2023-10-07T14:21:00,pkn,4.80
2023-10-07T14:23:00,pkn,9.60
2023-10-07T14:25:00,pkn,9.60
2023-10-07T14:27:00,pkn,9.60
2023-10-07T14:29:00,pkn,9.60
2023-10-07T14:31:00,pkn,7.20
2023-10-07T14:33:00,pkn,2.40
2023-10-07T14:34:00,pkn,1.20
2023-10-07T14:37:00,pkn,2.40
2023-10-07T14:39:00,pkn,1.20
2023-10-07T14:40:00,pkn,1.20
2023-10-07T14:42:00,pkn,1.20
2023-10-07T14:44:00,pkn,2.40
2023-10-07T14:46:00,pkn,1.20
2023-10-07T14:48:00,pkn,2.40
2023-10-07T14:49:00,pkn,1.20
2023-10-07T14:50:00,pkn,1.20
2023-10-07T14:52:00,pkn,2.40
2023-10-07T14:54:00,pkn,1.20
2023-10-07T14:56:00,pkn,2.40
2023-10-07T14:58:00,pkn,2.40
2023-10-07T15:00:00,pkn,1.20
2023-10-07T15:02:00,pkn,2.40
2023-10-07T15:04:00,pkn,1.20
2023-10-07T15:05:00,pkn,1.20
2023-10-07T15:06:00,pkn,1.20
2023-10-07T15:07:00,pkn,3.60
2023-10-07T15:09:00,pkn,9.60
2023-10-07T15:11:00,pkn,9.60
2023-10-07T15:12:00,pkn,4.80
2023-10-07T15:14:00,pkn,10.80
2023-10-07T15:16:00,pkn,6.00
2023-10-07T15:17:00,pkn,1.20
2023-10-07T15:19:00,pkn,1.20
2023-10-07T15:20:00,pkn,1.20
2023-10-07T15:21:00,pkn,1.20
2023-10-07T15:23:00,pkn,1.20
2023-10-07T15:24:00,pkn,2.40
2023-10-07T15:26:00,pkn,6.00
2023-10-07T15:28:00,pkn,9.60
2023-10-07T15:30:00,pkn,8.40
2023-10-07T15:31:00,pkn,3.60
2023-10-07T15:33:00,pkn,12.00
2023-10-07T15:34:00,pkn,6.00
2023-10-07T15:35:00,pkn,7.20
2023-10-07T15:37:00,pkn,12.00
2023-10-07T15:39:00,pkn,13.20
2023-10-07T15:41:00,pkn,10.80
2023-10-07T15:43:00,pkn,10.80
2023-10-07T15:45:00,pkn,13.20
2023-10-07T15:46:00,pkn,12.00
2023-10-07T15:47:00,pkn,12.00
2023-10-07T15:49:00,pkn,19.20
2023-10-07T15:50:00,pkn,9.60
2023-10-07T15:52:00,pkn,18.00
2023-10-07T15:53:00,pkn,8.40
2023-10-07T15:55:00,pkn,14.40
2023-10-07T15:56:00,pkn,4.80
2023-10-07T15:58:00,pkn,10.80
2023-10-07T15:59:00,pkn,4.80
2023-10-07T16:01:00,pkn,9.60
2023-10-07T16:02:00,pkn,3.60
2023-10-07T16:03:00,pkn,3.60
2023-10-07T16:05:00,pkn,8.40
2023-10-07T16:07:00,pkn,7.20
2023-10-07T16:09:00,pkn,7.20
2023-10-07T16:11:00,pkn,8.40
2023-10-07T16:13:00,pkn,8.40
2023-10-07T16:15:00,pkn,9.60
2023-10-07T16:17:00,pkn,9.60
2023-10-07T16:19:00,pkn,7.20
2023-10-07T16:20:00,pkn,3.60
2023-10-07T16:22:00,pkn,14.40
2023-10-07T16:23:00,pkn,8.40
2023-10-07T16:25:00,pkn,15.60
2023-10-07T16:27:00,pkn,15.60
2023-10-07T16:29:00,pkn,15.60
2023-10-07T16:31:00,pkn,6.00
2023-10-07T16:32:00,pkn,4.80
2023-10-07T16:34:00,pkn,8.40
2023-10-07T16:36:00,pkn,7.20
2023-10-07T16:38:00,pkn,8.40
2023-10-07T16:40:00,pkn,8.40
2023-10-07T16:42:00,pkn,8.40
2023-10-07T16:44:00,pkn,8.40
2023-10-07T16:45:00,pkn,4.80
2023-10-07T16:47:00,pkn,6.00
2023-10-07T16:48:00,pkn,2.40
2023-10-07T16:50:00,pkn,6.00
2023-10-07T16:52:00,pkn,3.60
2023-10-07T16:53:00,pkn,1.20
2023-10-07T16:55:00,pkn,4.80
2023-10-07T16:56:00,pkn,4.80
2023-10-07T16:58:00,pkn,13.20
2023-10-07T17:00:00,pkn,12.00
2023-10-07T17:02:00,pkn,13.20
2023-10-07T17:04:00,pkn,14.40
2023-10-07T17:06:00,pkn,6.00
2023-10-07T17:07:00,pkn,3.60
2023-10-07T17:09:00,pkn,6.00
2023-10-07T17:11:00,pkn,6.00
2023-10-07T17:12:00,pkn,3.60
2023-10-07T17:14:00,pkn,6.00
2023-10-07T17:15:00,pkn,2.40
2023-10-07T17:17:00,pkn,6.00
2023-10-07T17:19:00,pkn,3.60
2023-10-07T17:21:00,pkn,2.40
2023-10-07T17:22:00,pkn,1.20
2023-10-07T17:24:00,pkn,2.40
2023-10-07T17:26:00,pkn,2.40
2023-10-07T17:28:00,pkn,2.40
2023-10-07T17:30:00,pkn,10.80
2023-10-07T17:32:00,pkn,10.80
2023-10-07T17:33:00,pkn,4.80
2023-10-07T17:35:00,pkn,10.80
2023-10-07T17:37:00,pkn,10.80
2023-10-07T17:38:00,pkn,1.20
2023-10-07T17:40:00,pkn,2.40
2023-10-07T17:42:00,pkn,2.40
2023-10-07T17:44:00,pkn,3.60
2023-10-07T17:45:00,pkn,1.20
2023-10-07T17:46:00,pkn,1.20
2023-10-07T17:48:00,pkn,4.80
2023-10-07T17:50:00,pkn,9.60
2023-10-07T17:51:00,pkn,6.00
2023-10-07T17:53:00,pkn,10.80
2023-10-07T17:55:00,pkn,10.80
2023-10-07T17:57:00,pkn,10.80
2023-10-07T17:59:00,pkn,10.80
2023-10-07T18:01:00,pkn,10.80
2023-10-07T18:02:00,pkn,4.80
2023-10-07T18:04:00,pkn,10.80
2023-10-07T18:05:00,pkn,3.60
2023-10-07T18:06:00,pkn,2.40
2023-10-07T18:07:00,pkn,9.60
2023-10-07T18:09:00,pkn,3.60
2023-10-07T18:10:00,pkn,1.20
2023-10-07T18:12:00,pkn,3.60
2023-10-07T18:14:00,pkn,2.40
2023-10-07T18:16:00,pkn,2.40
2023-10-07T18:17:00,pkn,1.20
2023-10-07T18:19:00,pkn,2.40
2023-10-07T18:21:00,pkn,2.40
2023-10-07T18:23:00,pkn,7.20
2023-10-07T18:25:00,pkn,12.00
2023-10-07T18:26:00,pkn,9.60
2023-10-07T18:28:00,pkn,15.60
2023-10-07T18:30:00,pkn,16.80
2023-10-07T18:31:00,pkn,7.20
2023-10-07T18:32:00,pkn,9.60
2023-10-07T18:34:00,pkn,13.20
2023-10-07T18:36:00,pkn,7.20
2023-10-07T18:37:00,pkn,3.60
2023-10-07T18:38:00,pkn,2.40
2023-10-07T18:40:00,pkn,4.80
2023-10-07T18:41:00,pkn,3.60
2023-10-07T18:43:00,pkn,7.20
2023-10-07T18:45:00,pkn,6.00
2023-10-07T18:47:00,pkn,2.40
2023-10-07T18:49:00,pkn,2.40
2023-10-07T18:51:00,pkn,2.40
2023-10-07T18:53:00,pkn,4.80
2023-10-07T18:55:00,pkn,3.60
2023-10-07T18:57:00,pkn,12.00
2023-10-07T18:58:00,pkn,7.20
2023-10-07T18:59:00,pkn,4.80
2023-10-07T19:01:00,pkn,10.80
2023-10-07T19:03:00,pkn,9.60
2023-10-07T19:05:00,pkn,10.80
2023-10-07T19:07:00,pkn,3.60
2023-10-07T19:09:00,pkn,2.40
2023-10-07T19:10:00,pkn,1.20
2023-10-07T19:12:00,pkn,2.40
2023-10-07T19:13:00,pkn,1.20
2023-10-07T19:14:00,pkn,1.20
2023-10-07T19:16:00,pkn,2.40
2023-10-07T19:18:00,pkn,2.40
2023-10-07T19:20:00,pkn,2.40
2023-10-07T19:22:00,pkn,2.40
2023-10-07T19:24:00,pkn,1.20
2023-10-07T19:26:00,pkn,8.40
2023-10-07T19:27:00,pkn,4.80
2023-10-07T19:29:00,pkn,10.80
2023-10-07T19:30:00,pkn,4.80
2023-10-07T19:31:00,pkn,4.80
2023-10-07T19:33:00,pkn,9.60
2023-10-07T19:35:00,pkn,10.80
2023-10-07T19:36:00,pkn,4.80
2023-10-07T19:37:00,pkn,1.20
2023-10-07T19:38:00,pkn,8.40
2023-10-07T19:39:00,pkn,1.20
2023-10-07T19:40:00,pkn,8.40
2023-10-07T19:41:00,pkn,6.00
2023-10-07T19:43:00,pkn,10.80
2023-10-07T19:44:00,pkn,4.80
2023-10-07T19:46:00,pkn,6.00
2023-10-07T19:48:00,pkn,2.40
2023-10-07T19:49:00,pkn,1.20
2023-10-07T19:50:00,pkn,1.20
2023-10-07T19:52:00,pkn,2.40
2023-10-07T19:54:00,pkn,2.40
2023-10-07T19:56:00,pkn,1.20
2023-10-07T19:58:00,pkn,2.40
2023-10-07T20:00:00,pkn,2.40
2023-10-07T20:02:00,pkn,2.40
2023-10-07T20:04:00,pkn,1.20
2023-10-07T20:05:00,pkn,3.60
2023-10-07T20:07:00,pkn,9.60
2023-10-07T20:09:00,pkn,12.00
2023-10-07T20:11:00,pkn,12.00
2023-10-07T20:12:00,pkn,6.00
2023-10-07T20:13:00,pkn,8.40
2023-10-07T20:15:00,pkn,13.20
2023-10-07T20:17:00,pkn,6.00
2023-10-07T20:19:00,pkn,6.00
2023-10-07T20:20:00,pkn,2.40
2023-10-07T20:21:00,pkn,2.40
2023-10-07T20:23:00,pkn,6.00
2023-10-07T20:24:00,pkn,2.40
2023-10-07T20:25:00,pkn,2.40
2023-10-07T20:27:00,pkn,6.00
2023-10-07T20:29:00,pkn,6.00
2023-10-07T20:31:00,pkn,6.00
2023-10-07T20:33:00,pkn,6.00
2023-10-07T20:35:00,pkn,6.00
2023-10-07T20:37:00,pkn,6.00
2023-10-07T20:38:00,pkn,3.60
2023-10-07T20:40:00,pkn,6.00
2023-10-07T20:42:00,pkn,10.80
2023-10-07T20:43:00,pkn,7.20
2023-10-07T20:44:00,pkn,2.40
2023-10-07T20:45:00,pkn,12.00
2023-10-07T20:47:00,pkn,14.40
2023-10-07T20:49:00,pkn,14.40
2023-10-07T20:51:00,pkn,4.80
2023-10-07T20:52:00,pkn,1.20
2023-10-07T20:54:00,pkn,2.40
2023-10-07T20:55:00,pkn,1.20
2023-10-07T20:56:00,pkn,1.20
2023-10-07T20:58:00,pkn,2.40
2023-10-07T20:59:00,pkn,1.20
2023-10-07T21:00:00,pkn,1.20
2023-10-07T21:02:00,pkn,3.60
2023-10-07T21:04:00,pkn,3.60
2023-10-07T21:05:00,pkn,2.40
2023-10-07T21:06:00,pkn,3.60
2023-10-07T21:07:00,pkn,3.60
2023-10-07T21:09:00,pkn,4.80
2023-10-07T21:11:00,pkn,4.80
2023-10-07T21:12:00,pkn,2.40
2023-10-07T21:14:00,pkn,4.80
2023-10-07T21:16:00,pkn,4.80
2023-10-07T21:17:00,pkn,1.20
2023-10-07T21:19:00,pkn,4.80
2023-10-07T21:21:00,pkn,6.00
2023-10-07T21:22:00,pkn,3.60
2023-10-07T21:24:00,pkn,13.20
2023-10-07T21:25:00,pkn,7.20
2023-10-07T21:27:00,pkn,13.20
2023-10-07T21:29:00,pkn,9.60
2023-10-07T21:30:00,pkn,6.00
2023-10-07T21:32:00,pkn,4.80
2023-10-07T21:34:00,pkn,2.40
2023-10-07T21:35:00,pkn,1.20
2023-10-07T21:37:00,pkn,2.40
2023-10-07T21:38:00,pkn,1.20
2023-10-07T21:39:00,pkn,1.20
2023-10-07T21:40:00,pkn,1.20
2023-10-07T21:42:00,pkn,2.40
2023-10-07T21:43:00,pkn,1.20
2023-10-07T21:45:00,pkn,2.40
2023-10-07T21:47:00,pkn,2.40
2023-10-07T21:49:00,pkn,3.60
2023-10-07T21:51:00,pkn,2.40
2023-10-07T21:52:00,pkn,1.20
2023-10-07T21:54:00,pkn,2.40
2023-10-07T21:55:00,pkn,1.20
2023-10-07T21:57:00,pkn,2.40
2023-10-07T21:59:00,pkn,2.40
2023-10-07T22:00:00,pkn,2.40
2023-10-07T22:01:00,pkn,2.40
2023-10-07T22:03:00,pkn,12.00
2023-10-07T22:05:00,pkn,13.20
2023-10-07T22:06:00,pkn,2.40
2023-10-07T22:07:00,pkn,10.80
2023-10-07T22:08:00,pkn,6.00
2023-10-07T22:10:00,pkn,13.20
2023-10-07T22:11:00,pkn,2.40
2023-10-07T22:13:00,pkn,2.40
2023-10-07T22:14:00,pkn,1.20
2023-10-07T22:16:00,pkn,2.40
2023-10-07T22:18:00,pkn,2.40
2023-10-07T22:20:00,pkn,2.40
2023-10-07T22:21:00,pkn,1.20
2023-10-07T22:22:00,pkn,1.20
2023-10-07T22:24:00,pkn,2.40
2023-10-07T22:26:00,pkn,3.60
2023-10-07T22:27:00,pkn,1.20
2023-10-07T22:29:00,pkn,2.40
2023-10-07T22:30:00,pkn,1.20
2023-10-07T22:32:00,pkn,2.40
2023-10-07T22:33:00,pkn,1.20
2023-10-07T22:35:00,pkn,2.40
